Wind_Speed
8 10 8 9 9 7 4 5 7 4 3 6 4 1 1 2 4 4 5 4 3 1 8 9 7 8 10 10 9 13 16 17 18 21 27 32 34 37 42 48 51 51 50 49 49 47 45 43 42 41 40 39 39 39 39 39 38 38 38 37 38 38 38
9 10 11 11 11 7 4 7 8 4 1 2 2 3 3 4 8 4 4 7 5 3 4 3 2 7 11 11 9 9 11 16 20 24 30 36 38 42 46 49 52 53 52 51 50 49 47 45 42 41 40 39 39 39 39 39 39 39 39 39 39 39 39
9 8 9 10 10 7 1 4 9 6 4 5 2 4 5 6 8 4 4 7 6 6 5 3 4 7 9 10 6 8 11 16 21 24 30 35 39 41 44 47 50 52 53 53 52 50 48 46 44 42 40 39 39 40 40 40 40 40 40 41 41 41 41
7 7 8 10 11 6 1 3 8 4 4 5 4 3 4 6 7 4 5 5 4 6 6 6 10 9 8 10 7 8 12 17 22 24 26 31 37 40 43 45 48 51 53 53 53 51 49 47 45 42 41 41 40 40 41 42 42 42 42 42 43 43 43
5 7 8 12 13 9 5 7 8 5 2 2 3 3 2 4 6 5 6 7 4 4 5 8 12 11 10 11 9 7 11 17 23 24 25 32 38 40 41 43 47 49 50 51 51 50 49 47 45 43 43 43 41 41 42 43 44 44 44 44 44 44 44
7 9 8 11 15 12 10 8 8 9 7 4 6 7 3 3 5 4 5 8 5 6 6 8 10 11 11 12 9 8 11 14 17 21 26 33 37 39 40 43 45 47 48 49 49 49 48 48 48 47 45 44 43 43 43 43 44 45 45 45 45 45 46
10 10 7 5 9 11 12 11 10 11 10 9 10 9 4 4 3 1 1 6 5 5 6 8 9 10 11 10 8 9 12 13 15 19 24 30 34 36 39 41 43 44 46 46 46 47 47 47 48 48 46 45 44 44 44 44 45 46 45 45 45 46 46
7 7 5 2 2 7 11 12 12 12 12 13 12 6 4 5 6 4 3 6 5 3 2 4 6 8 9 11 11 12 15 16 17 19 23 27 31 34 37 40 41 41 43 44 44 45 45 45 46 47 47 47 45 45 45 45 46 45 45 45 46 46 46
6 7 8 6 4 6 8 8 10 13 15 15 8 2 3 6 9 11 8 7 5 3 1 2 4 7 9 13 14 13 14 15 15 17 21 25 28 32 36 38 39 40 41 41 42 42 43 43 44 45 47 48 47 47 46 46 46 46 45 45 46 47 46
9 9 10 8 5 5 5 6 9 13 17 18 9 3 4 7 8 11 10 7 4 2 1 2 4 6 9 13 14 12 14 18 17 18 21 24 27 32 35 37 38 39 39 39 39 40 40 41 41 42 44 46 47 48 47 47 46 46 46 46 47 48 46
11 10 9 6 5 6 8 9 12 12 15 17 11 5 7 5 4 7 9 7 6 7 6 5 6 7 10 12 10 9 15 23 22 20 21 23 28 32 34 36 36 36 37 38 37 38 38 38 39 38 40 42 45 46 46 47 46 46 47 47 48 49 48
15 15 14 11 10 12 13 13 15 15 15 17 15 13 10 7 5 9 8 7 9 11 9 9 10 10 9 8 8 11 19 25 23 20 19 21 26 30 32 35 35 35 37 37 37 37 36 36 36 36 37 39 41 42 43 44 46 46 47 48 48 48 48
18 20 19 13 12 13 14 15 17 17 17 18 18 17 12 9 8 12 7 8 10 11 11 11 11 11 10 13 18 20 20 22 21 19 20 23 26 30 34 36 36 36 36 36 36 35 34 35 35 34 36 38 38 39 39 40 43 44 46 47 47 46 44
18 21 20 14 13 13 13 15 17 16 18 20 20 20 17 14 15 15 9 10 12 12 12 12 13 17 17 18 20 19 17 20 22 22 22 23 27 33 36 37 37 37 35 35 34 34 33 33 32 32 33 34 34 34 35 38 40 42 43 45 43 41 41
13 17 17 14 15 16 15 17 16 15 16 17 18 17 14 13 15 13 10 10 10 10 11 10 9 12 12 11 11 14 18 22 22 22 24 25 29 35 38 38 38 36 34 34 34 33 32 30 29 29 29 29 31 33 35 37 38 37 38 39 38 38 39
8 10 14 15 15 15 17 19 17 15 14 13 13 11 9 10 12 9 6 7 7 7 8 7 5 5 7 9 11 15 20 21 22 26 29 30 32 36 37 39 39 36 34 34 33 31 30 29 28 28 28 30 32 33 33 31 30 31 32 33 33 34 36
7 7 10 13 11 10 12 14 15 15 12 11 11 10 10 13 13 9 7 8 8 5 4 6 8 8 9 11 13 17 20 22 25 29 32 34 35 37 40 41 40 37 35 33 31 30 28 27 28 29 29 30 28 24 22 21 21 24 25 26 28 30 32
7 5 4 6 7 9 8 7 11 16 16 16 15 11 11 13 11 6 4 6 6 5 6 8 9 8 7 8 11 16 19 20 24 28 31 32 32 34 37 38 38 37 35 33 31 29 28 29 29 27 23 19 15 13 14 14 16 18 19 20 22 24 27
4 1 3 6 8 8 4 1 4 10 15 18 15 6 4 7 7 4 5 7 6 4 6 6 6 7 8 7 8 11 14 18 21 25 29 28 26 27 28 31 35 36 35 34 32 31 30 28 23 17 12 10 10 10 11 11 11 12 13 14 15 17 21
2 1 4 6 5 1 1 1 2 3 6 10 9 4 2 4 5 6 8 9 5 3 4 5 5 7 9 6 4 5 10 15 17 19 23 26 27 26 23 23 30 34 34 32 30 27 23 18 13 12 13 13 12 11 10 8 7 6 6 7 9 11 15
2 3 4 3 3 3 3 2 3 3 2 5 7 7 6 4 3 6 7 7 5 4 5 7 8 9 9 6 2 3 6 12 15 15 16 17 19 21 19 18 22 25 24 21 18 16 15 16 18 18 17 15 13 11 8 6 5 4 4 4 5 6 9
1 3 4 3 6 6 4 3 3 1 3 3 4 5 5 4 2 6 7 7 7 7 6 8 11 10 6 5 1 7 6 6 10 13 14 12 11 14 15 15 16 17 15 15 17 20 22 22 21 18 16 14 11 9 7 6 5 4 3 2 1 3 6
1 2 5 5 6 4 1 2 2 3 4 3 3 6 6 3 1 3 6 7 7 6 7 11 12 8 5 4 1 8 6 1 5 9 12 12 11 12 13 15 18 20 21 25 27 26 24 21 18 16 14 12 10 9 9 8 6 5 3 2 1 2 5
1 1 4 5 4 1 3 5 7 7 5 2 6 8 5 2 2 2 4 5 6 7 11 12 7 2 3 4 2 5 5 7 9 9 12 14 15 16 19 22 25 28 29 30 28 25 22 19 17 15 13 12 11 11 10 9 8 6 4 3 2 2 4
0 1 3 5 3 1 4 10 12 8 2 5 8 7 2 3 3 2 3 8 9 9 11 10 6 6 9 11 11 14 17 20 21 21 21 21 21 21 22 24 27 29 29 27 24 21 19 17 15 14 12 10 10 10 10 10 9 6 3 2 1 2 4
1 0 3 5 2 3 10 18 15 5 3 4 4 3 3 5 8 10 11 13 16 17 18 18 16 17 18 20 24 28 31 33 33 32 31 31 30 27 25 24 24 25 24 22 19 16 13 11 12 11 9 7 6 7 9 8 5 3 1 1 1 3 4
0 1 2 5 3 4 18 21 11 3 1 2 6 8 7 10 15 18 17 16 18 21 23 23 23 24 26 29 34 37 37 37 37 35 34 34 34 32 29 26 23 22 21 19 16 15 12 10 9 8 6 4 2 2 4 4 3 3 2 1 3 4 4
1 1 1 2 2 9 19 16 3 4 7 9 10 9 9 13 18 21 20 20 23 26 27 27 28 31 34 36 38 38 38 37 36 35 33 32 31 30 29 27 24 22 21 20 17 16 14 11 9 7 6 4 3 2 1 3 4 2 1 3 4 4 4
1 2 1 4 7 12 16 13 8 10 15 18 14 12 12 15 20 24 24 25 28 30 31 32 34 35 35 34 34 33 33 33 33 33 32 30 29 27 26 24 21 20 20 18 16 14 12 11 11 11 9 7 6 5 3 2 2 1 2 3 3 3 3
2 5 1 5 7 11 15 14 11 10 13 16 16 17 18 18 21 25 24 23 25 26 28 31 32 31 30 30 29 27 26 26 26 26 26 25 24 22 21 20 18 16 16 15 13 12 11 11 10 9 9 7 6 5 2 2 2 2 3 3 2 1 3
5 4 3 2 5 9 12 10 9 10 13 16 18 21 22 22 24 25 24 23 23 23 24 26 27 26 26 26 25 23 22 21 20 19 18 18 16 14 14 14 12 10 9 8 8 9 8 6 3 4 5 4 5 6 5 6 6 4 2 2 1 3 4
4 4 7 5 3 4 7 6 5 8 14 20 21 21 22 23 25 25 25 24 23 22 22 22 23 23 23 22 21 20 18 17 16 15 14 13 11 9 8 7 7 7 6 5 6 6 4 3 7 8 8 8 10 10 9 10 9 6 4 3 4 5 5
5 6 7 7 6 3 4 3 4 9 16 22 23 23 24 26 28 29 29 28 26 24 23 22 23 24 22 20 20 19 17 15 14 13 11 10 9 7 6 5 6 7 7 6 5 4 2 4 7 8 8 8 10 11 11 10 8 5 6 6 6 5 5
5 7 12 12 8 4 2 4 6 11 19 24 23 23 24 25 26 27 27 27 26 24 21 20 20 22 21 19 18 18 17 15 13 11 8 6 5 5 5 6 6 6 6 5 5 4 3 3 4 5 6 8 10 10 9 8 7 8 8 7 6 5 5
2 10 19 17 10 8 10 12 11 13 20 24 23 23 24 23 22 22 22 22 22 22 21 19 19 20 20 18 17 17 17 15 12 10 7 4 3 3 2 3 4 3 4 5 6 6 6 6 5 5 6 8 9 9 9 10 10 10 9 7 7 7 7
4 11 16 15 15 17 17 16 15 17 20 22 23 23 23 22 21 22 23 24 23 21 20 20 20 21 21 19 18 18 17 15 12 10 8 6 5 4 2 1 1 1 2 4 6 7 7 7 6 5 4 5 7 10 11 12 12 12 10 8 8 9 10
11 17 18 19 24 26 22 20 20 21 22 22 21 20 18 17 17 18 20 21 20 19 18 17 17 18 18 18 17 16 15 13 12 10 8 7 6 6 5 3 2 1 1 3 5 6 6 6 5 4 3 5 8 10 12 14 14 12 10 9 9 9 10
Wind_Direction
184 189 176 169 189 187 160 183 205 207 161 170 180 184 84 136 221 199 172 228 249 249 284 275 250 260 261 250 235 221 215 200 193 199 203 207 209 210 216 221 224 226 228 229 229 228 228 228 228 228 227 226 226 226 226 226 227 227 228 229 229 230 231
204 195 182 193 207 179 154 200 182 105 55 191 181 202 167 191 230 213 167 219 227 202 248 270 251 250 251 248 230 213 203 191 198 207 208 210 211 214 219 222 223 225 226 226 227 228 228 227 226 227 226 225 225 226 227 228 228 227 228 229 229 230 231
190 174 192 209 208 194 233 195 160 144 200 191 170 213 192 198 229 222 181 214 227 214 214 243 256 253 256 256 222 188 195 198 205 211 211 212 212 214 219 220 221 224 225 225 225 226 227 227 226 226 226 226 226 228 229 230 230 229 229 230 230 230 231
173 162 197 216 205 194 332 171 169 185 217 186 182 197 184 203 226 226 205 211 214 211 202 213 239 250 256 257 234 195 202 205 209 211 208 208 209 212 217 218 221 223 223 224 224 224 226 227 227 226 226 226 227 229 230 230 231 231 231 232 232 232 232
181 188 199 215 211 193 186 195 187 183 171 158 197 195 165 209 219 212 224 231 203 186 194 205 224 237 239 244 244 223 214 213 214 212 207 208 210 213 217 219 221 222 221 222 223 224 225 226 228 227 226 226 226 228 230 230 231 231 231 232 232 233 233
204 212 198 211 222 209 196 200 193 186 179 164 201 214 182 192 221 202 224 246 220 170 187 204 216 232 235 237 240 241 236 224 217 216 216 215 214 215 219 220 221 221 220 220 221 223 224 225 227 228 227 227 226 226 229 230 231 232 233 233 233 234 235
216 214 188 198 235 221 205 204 200 197 195 190 207 219 180 168 216 144 197 257 238 170 184 203 213 228 240 246 246 251 254 243 230 225 221 219 219 220 221 220 220 220 219 219 220 222 223 224 225 227 228 228 227 227 228 229 231 233 233 234 235 236 236
229 220 192 143 239 217 211 211 203 200 206 208 214 212 169 184 197 167 199 245 219 166 180 212 233 249 258 259 246 242 254 255 245 233 222 220 221 220 219 218 218 219 219 219 220 222 223 223 225 226 228 229 230 229 229 230 232 233 234 236 237 238 239
225 221 213 205 199 202 215 218 206 205 209 211 209 142 158 212 196 183 214 236 196 172 164 186 246 261 259 256 245 239 252 256 247 233 225 221 218 216 216 215 216 218 219 220 221 222 223 223 224 226 228 230 230 231 232 232 233 234 235 237 239 240 240
216 215 216 213 198 191 213 218 207 210 212 209 199 133 196 217 186 185 218 228 181 174 228 211 234 248 252 254 247 243 251 253 248 236 227 220 215 214 214 214 215 217 219 221 221 221 222 223 223 225 227 230 231 233 234 235 236 237 238 238 240 241 241
217 220 219 199 176 190 206 210 206 207 213 211 200 193 214 194 145 198 217 213 202 201 202 216 228 229 241 249 243 237 246 249 247 238 228 221 216 215 213 213 214 215 218 220 220 220 222 223 224 225 227 230 232 234 236 237 238 240 241 242 243 243 243
217 224 219 193 189 208 209 207 207 200 201 205 204 213 211 150 156 221 206 187 217 213 197 210 221 220 232 246 236 230 238 242 240 233 227 220 215 213 213 213 213 215 217 218 219 220 221 222 225 226 227 230 233 235 237 239 240 242 245 246 246 246 245
215 223 223 200 191 212 211 210 212 200 194 200 207 219 211 166 200 233 196 170 212 217 208 213 216 213 216 225 227 227 232 236 232 225 219 213 210 210 211 212 214 216 217 218 219 220 221 223 225 226 228 230 233 236 239 240 242 243 246 247 248 248 245
218 223 225 205 196 212 213 211 210 202 200 200 202 214 211 197 219 232 202 188 209 215 215 217 219 219 218 222 226 225 226 227 221 215 212 207 207 210 212 212 213 215 218 219 220 220 221 223 225 227 229 231 233 236 238 240 242 242 244 248 250 248 247
230 229 227 214 207 216 220 216 208 201 204 205 205 211 204 198 218 223 203 203 214 217 220 223 226 226 220 221 221 217 220 218 211 207 208 206 208 212 214 214 213 214 217 219 220 221 222 223 224 227 230 232 235 236 236 239 242 244 246 251 252 250 248
241 228 224 220 213 218 228 229 216 198 198 205 209 209 191 189 207 208 195 211 223 221 221 228 234 217 209 216 217 216 219 215 207 207 208 209 212 214 215 216 214 213 215 218 220 221 221 223 225 228 230 232 233 234 238 244 249 251 253 255 256 253 250
262 240 219 214 207 214 230 233 224 208 195 197 206 205 196 196 200 199 203 219 225 208 186 215 228 218 215 225 223 220 219 215 213 214 214 214 214 213 215 216 214 211 212 216 218 219 222 224 225 227 230 233 237 241 248 254 255 255 257 259 259 256 252
277 269 187 179 199 217 224 224 220 213 202 199 205 205 204 205 203 201 218 227 222 194 180 205 220 215 227 253 249 237 229 223 221 221 221 220 218 217 219 219 215 212 212 215 217 218 221 223 225 230 233 237 243 245 246 248 248 251 256 259 259 258 255
288 333 143 194 224 223 211 174 213 217 213 208 204 189 181 207 214 224 239 231 219 197 198 217 226 216 222 245 260 252 242 235 231 229 227 226 224 224 225 222 217 213 213 215 217 217 220 224 227 229 222 211 209 209 214 222 230 240 249 254 258 260 257
269 271 201 227 258 263 130 89 118 169 202 192 184 174 167 202 218 225 233 235 228 200 210 230 227 196 186 186 211 251 247 239 237 237 236 235 232 232 234 229 223 219 215 216 219 220 221 217 198 179 171 170 174 179 184 190 200 217 233 245 253 256 256
235 267 251 254 296 276 218 178 135 135 170 169 182 201 190 172 194 217 233 253 252 218 205 205 191 173 160 154 130 337 276 237 231 235 238 240 239 239 241 237 230 226 220 215 211 203 187 167 156 154 156 157 160 162 161 157 157 175 200 222 238 247 253
204 269 275 260 253 237 189 144 113 36 316 282 248 221 182 161 201 218 227 244 234 211 183 167 170 172 177 182 95 357 327 242 225 227 220 216 223 229 228 218 210 208 198 176 161 156 152 151 152 154 154 153 149 143 139 136 137 147 155 171 213 251 258
143 261 273 254 244 242 101 40 3 347 322 294 241 211 191 174 212 229 227 230 221 201 165 152 160 171 178 172 22 353 345 205 197 206 194 183 183 190 191 181 171 165 157 149 145 146 147 150 155 156 154 150 146 145 147 149 151 155 159 166 193 255 268
93 246 273 257 242 288 6 345 332 324 311 225 194 202 194 117 22 286 229 198 176 163 150 142 145 168 155 142 73 21 58 114 130 145 150 149 150 152 153 151 148 146 145 145 146 149 150 151 155 156 153 153 157 161 163 171 180 185 188 195 219 262 277
86 184 264 271 260 89 10 336 324 315 275 189 195 202 167 64 36 12 129 135 127 124 126 123 104 83 96 109 108 101 103 106 105 108 116 121 122 126 133 139 143 143 143 145 147 148 150 154 156 155 154 159 171 181 189 196 201 204 205 201 239 282 294
271 148 262 276 242 85 7 339 323 297 212 197 177 136 91 82 83 81 88 101 103 99 97 100 102 102 101 104 104 102 103 103 100 100 104 106 105 106 110 118 126 129 131 134 136 134 135 143 152 156 159 167 186 208 219 221 215 208 203 200 251 286 302
171 100 281 273 226 359 347 335 316 270 242 162 120 106 98 90 88 88 84 84 93 100 101 102 105 105 101 97 95 95 96 96 96 97 101 102 103 104 104 104 107 109 107 106 106 105 104 109 124 138 147 151 166 236 243 226 193 173 186 241 277 290 294
257 122 288 308 317 329 334 334 337 98 97 119 120 107 100 95 93 94 91 87 91 98 103 104 103 100 97 94 92 91 89 89 89 89 90 93 97 101 102 102 106 108 103 95 90 89 89 88 89 89 86 79 67 61 158 177 169 172 243 277 287 292 283
285 121 229 307 324 330 338 358 41 85 106 115 109 98 98 98 97 97 95 92 91 91 94 96 95 94 94 93 92 90 87 87 88 87 86 86 87 89 92 95 100 106 106 101 97 93 87 82 79 75 66 56 52 56 79 143 169 225 291 300 304 292 257
130 99 134 289 320 340 350 9 33 66 96 103 97 95 94 90 94 97 97 97 95 92 93 94 93 94 95 95 93 92 90 89 90 90 90 88 86 86 87 87 88 94 101 104 104 102 96 91 82 60 39 30 24 16 357 259 254 291 306 313 318 252 206
157 126 163 259 337 346 347 1 29 54 78 89 91 93 93 92 95 95 95 97 99 97 96 97 96 97 97 96 95 94 93 93 92 91 91 91 89 88 87 84 84 88 93 102 118 128 125 116 83 2 352 339 314 309 282 247 245 252 260 275 235 184 182
148 138 154 148 102 13 350 3 37 63 83 92 92 92 94 97 98 98 96 95 93 92 94 96 96 96 95 94 95 93 91 89 87 86 86 83 82 83 82 86 97 104 104 117 149 164 186 254 265 270 274 269 271 272 252 235 235 228 204 182 165 166 161
96 94 132 142 124 75 347 0 94 103 104 104 101 98 97 96 96 96 94 93 91 90 91 92 92 92 91 90 91 91 90 87 84 83 81 78 79 84 90 109 128 133 136 148 171 192 253 268 250 251 255 245 243 246 236 228 222 192 156 145 147 151 145
144 155 171 168 146 131 193 180 147 124 116 112 108 104 99 96 96 94 93 92 90 89 89 91 92 92 90 89 90 91 90 86 82 81 80 77 82 91 111 135 143 137 127 126 140 148 148 173 206 234 238 224 223 226 214 194 171 145 130 128 135 140 142
151 161 168 164 140 130 150 154 147 133 121 114 110 106 101 97 96 96 95 93 88 83 82 83 88 91 91 89 89 90 88 87 85 83 78 71 69 74 106 143 151 141 124 126 141 159 174 189 204 221 227 218 212 200 176 155 141 128 117 114 124 132 139
62 126 147 142 124 126 138 144 140 130 120 114 110 106 100 95 90 87 86 86 87 88 85 80 80 83 84 81 80 79 78 78 78 77 72 65 59 51 53 84 122 176 192 191 187 188 200 209 208 211 209 193 185 177 162 149 138 125 110 104 115 130 140
101 115 122 121 120 123 130 133 127 120 118 115 111 105 102 99 95 92 89 88 90 94 95 89 83 80 78 75 72 69 67 67 66 64 62 57 48 42 41 46 56 78 202 211 199 198 209 214 207 203 197 183 180 175 163 151 140 125 112 110 121 137 147
Height
1442 1444 1444 1444 1451 1459 1463 1464 1466 1462 1455 1462 1480 1492 1490 1490 1496 1496 1494 1487 1476 1470 1463 1450 1449 1451 1447 1445 1446 1446 1448 1451 1454 1456 1456 1459 1461 1463 1466 1468 1471 1474 1477 1480 1482 1486 1490 1493 1496 1499 1501 1504 1506 1507 1509 1511 1514 1516 1518 1519 1521 1523 1525
1442 1439 1442 1442 1441 1446 1457 1463 1457 1455 1459 1461 1471 1487 1496 1497 1497 1491 1488 1484 1477 1478 1471 1454 1450 1453 1448 1444 1443 1444 1446 1448 1449 1449 1450 1452 1453 1456 1460 1461 1465 1468 1471 1474 1477 1481 1485 1488 1491 1494 1497 1499 1502 1504 1506 1508 1510 1512 1514 1516 1517 1520 1521
1439 1437 1443 1447 1441 1439 1446 1448 1444 1451 1467 1471 1473 1482 1491 1496 1497 1491 1488 1485 1476 1474 1469 1456 1453 1453 1447 1442 1441 1442 1444 1443 1443 1444 1444 1447 1449 1453 1455 1457 1461 1463 1466 1469 1472 1476 1480 1483 1487 1490 1493 1496 1498 1500 1503 1505 1506 1509 1511 1513 1514 1516 1517
1436 1437 1443 1447 1444 1442 1443 1443 1442 1446 1454 1461 1466 1469 1472 1482 1491 1490 1489 1488 1476 1464 1458 1454 1452 1448 1443 1441 1439 1438 1439 1437 1437 1438 1440 1443 1446 1448 1451 1453 1456 1457 1460 1464 1467 1472 1475 1478 1482 1485 1489 1492 1494 1497 1499 1500 1502 1505 1507 1509 1510 1511 1513
1439 1439 1438 1437 1438 1442 1445 1448 1449 1449 1450 1452 1457 1460 1460 1467 1479 1485 1487 1485 1469 1452 1447 1447 1446 1441 1438 1437 1434 1433 1432 1432 1433 1434 1436 1439 1441 1444 1446 1448 1450 1452 1456 1460 1464 1468 1472 1475 1478 1481 1485 1488 1490 1493 1494 1496 1498 1500 1502 1504 1506 1508 1510
1440 1434 1428 1427 1429 1432 1438 1443 1445 1446 1447 1451 1461 1467 1462 1459 1465 1471 1476 1476 1459 1441 1436 1438 1437 1435 1432 1429 1429 1429 1427 1428 1430 1431 1433 1435 1436 1439 1441 1443 1446 1449 1452 1456 1460 1464 1468 1471 1474 1477 1480 1483 1486 1488 1490 1492 1494 1495 1498 1500 1502 1504 1506
1432 1427 1423 1424 1425 1424 1428 1433 1435 1437 1438 1443 1454 1463 1462 1460 1462 1462 1465 1470 1454 1431 1428 1431 1430 1429 1427 1426 1427 1427 1425 1425 1427 1428 1430 1432 1433 1436 1438 1440 1443 1446 1448 1453 1457 1460 1463 1466 1469 1473 1476 1479 1481 1484 1486 1488 1490 1492 1495 1497 1499 1501 1502
1425 1422 1421 1423 1424 1426 1429 1429 1427 1430 1432 1432 1436 1444 1450 1454 1458 1459 1466 1471 1453 1430 1426 1428 1426 1426 1426 1426 1426 1425 1424 1423 1424 1426 1427 1428 1431 1433 1436 1438 1441 1443 1446 1450 1453 1456 1459 1462 1466 1469 1472 1474 1477 1480 1482 1484 1486 1489 1492 1494 1496 1497 1499
1440 1435 1433 1431 1428 1428 1429 1427 1425 1425 1426 1428 1431 1437 1445 1449 1448 1450 1460 1464 1448 1430 1427 1427 1426 1428 1427 1424 1424 1424 1423 1421 1422 1423 1424 1425 1428 1431 1434 1436 1438 1440 1443 1445 1449 1452 1455 1459 1463 1466 1468 1471 1473 1476 1478 1481 1484 1487 1489 1491 1492 1493 1496
1450 1446 1439 1431 1428 1427 1426 1425 1425 1424 1425 1427 1431 1439 1448 1450 1445 1442 1448 1450 1440 1429 1427 1426 1426 1428 1426 1423 1421 1421 1421 1420 1420 1421 1422 1423 1425 1428 1431 1433 1435 1437 1439 1442 1445 1448 1452 1456 1459 1462 1465 1467 1470 1472 1475 1478 1480 1483 1485 1487 1488 1489 1492
1429 1429 1424 1418 1419 1424 1426 1425 1424 1425 1425 1424 1428 1436 1441 1443 1445 1444 1439 1439 1438 1432 1428 1427 1426 1426 1425 1420 1418 1419 1419 1418 1418 1419 1420 1421 1423 1426 1429 1431 1433 1435 1436 1439 1442 1446 1449 1452 1456 1459 1461 1464 1467 1469 1471 1475 1477 1479 1481 1482 1483 1485 1488
1412 1411 1411 1411 1413 1416 1418 1420 1420 1421 1422 1423 1426 1429 1428 1431 1442 1444 1433 1433 1437 1432 1426 1425 1423 1422 1421 1418 1415 1415 1415 1415 1416 1418 1419 1420 1422 1425 1427 1429 1430 1432 1433 1436 1440 1443 1447 1450 1453 1456 1459 1461 1464 1466 1469 1472 1474 1475 1477 1478 1480 1482 1484
1405 1403 1404 1406 1410 1411 1410 1412 1414 1415 1418 1420 1422 1422 1420 1424 1432 1432 1427 1431 1434 1427 1421 1419 1416 1415 1415 1412 1410 1410 1411 1412 1414 1416 1416 1417 1420 1422 1424 1426 1426 1428 1430 1433 1437 1441 1444 1447 1450 1453 1456 1459 1461 1463 1466 1468 1470 1472 1473 1474 1476 1479 1481
1402 1401 1401 1403 1407 1409 1408 1407 1408 1408 1411 1413 1414 1415 1415 1418 1420 1419 1421 1427 1426 1419 1414 1411 1408 1407 1407 1407 1407 1408 1409 1410 1411 1413 1414 1415 1417 1419 1420 1421 1422 1425 1428 1431 1435 1438 1441 1444 1447 1450 1453 1455 1458 1460 1463 1465 1467 1469 1471 1471 1473 1476 1478
1404 1400 1399 1402 1405 1407 1407 1405 1403 1404 1407 1408 1409 1409 1410 1415 1417 1415 1416 1422 1420 1411 1405 1404 1404 1405 1406 1407 1407 1406 1406 1407 1409 1410 1411 1412 1414 1416 1417 1418 1419 1422 1426 1429 1432 1435 1438 1441 1444 1447 1450 1452 1455 1457 1460 1461 1463 1466 1468 1469 1471 1473 1474
1407 1398 1399 1402 1401 1404 1406 1404 1401 1402 1405 1407 1407 1406 1407 1411 1415 1416 1419 1422 1417 1406 1402 1403 1404 1404 1406 1405 1403 1403 1403 1405 1406 1407 1407 1409 1411 1413 1414 1415 1416 1420 1424 1426 1429 1432 1435 1438 1442 1444 1447 1449 1452 1454 1457 1460 1462 1464 1466 1467 1468 1470 1471
1407 1398 1398 1399 1402 1413 1414 1402 1396 1398 1400 1402 1403 1403 1403 1403 1406 1413 1416 1412 1405 1400 1401 1404 1404 1403 1403 1401 1399 1399 1400 1401 1403 1403 1404 1404 1406 1408 1410 1411 1413 1417 1420 1423 1427 1430 1433 1436 1439 1442 1444 1447 1450 1453 1456 1458 1460 1461 1463 1464 1465 1467 1468
1408 1399 1396 1400 1412 1420 1409 1390 1385 1389 1392 1396 1399 1399 1399 1397 1397 1400 1402 1398 1395 1396 1399 1401 1400 1400 1400 1399 1399 1398 1398 1399 1400 1401 1401 1403 1404 1406 1407 1408 1411 1415 1419 1422 1425 1428 1432 1434 1437 1440 1443 1446 1449 1451 1453 1455 1457 1458 1460 1461 1463 1464 1465
1408 1401 1403 1415 1419 1407 1389 1381 1381 1383 1384 1386 1391 1394 1395 1395 1395 1395 1395 1393 1392 1393 1395 1395 1396 1396 1397 1398 1399 1398 1398 1397 1397 1398 1400 1401 1403 1405 1407 1408 1411 1414 1416 1419 1422 1426 1429 1432 1436 1440 1442 1444 1447 1449 1450 1452 1454 1455 1457 1459 1460 1461 1462
1407 1406 1409 1417 1410 1390 1382 1384 1383 1382 1384 1386 1391 1397 1397 1395 1395 1396 1394 1391 1389 1391 1393 1393 1394 1396 1396 1396 1397 1397 1397 1396 1395 1396 1397 1399 1401 1403 1405 1409 1411 1413 1414 1417 1421 1425 1428 1432 1436 1438 1440 1443 1445 1446 1448 1449 1451 1453 1455 1456 1458 1459 1460
1406 1407 1406 1404 1400 1392 1388 1386 1382 1382 1384 1384 1387 1393 1394 1393 1393 1393 1392 1390 1389 1389 1390 1391 1394 1395 1395 1395 1396 1396 1396 1395 1394 1395 1396 1398 1400 1401 1404 1407 1410 1413 1416 1419 1422 1425 1429 1432 1435 1437 1439 1441 1443 1444 1446 1448 1450 1452 1453 1454 1456 1457 1458
1404 1407 1408 1406 1406 1400 1389 1383 1382 1381 1381 1380 1380 1385 1390 1390 1389 1389 1389 1389 1388 1386 1387 1389 1392 1394 1396 1398 1396 1395 1395 1394 1393 1394 1394 1396 1398 1400 1402 1405 1408 1413 1417 1419 1422 1425 1428 1431 1434 1436 1439 1440 1441 1443 1445 1447 1449 1450 1452 1453 1454 1455 1456
1405 1409 1412 1410 1405 1396 1386 1383 1382 1381 1381 1379 1380 1386 1390 1387 1385 1386 1386 1385 1384 1383 1384 1386 1389 1392 1397 1399 1396 1395 1394 1393 1393 1393 1393 1393 1395 1398 1401 1403 1407 1411 1415 1418 1421 1425 1428 1431 1433 1435 1437 1438 1440 1442 1444 1446 1448 1449 1450 1451 1453 1454 1455
1406 1411 1412 1404 1394 1389 1386 1385 1383 1382 1380 1380 1386 1394 1391 1382 1381 1383 1382 1381 1381 1381 1382 1384 1386 1390 1394 1396 1396 1396 1395 1394 1393 1392 1392 1393 1395 1398 1401 1404 1407 1411 1414 1418 1421 1424 1427 1430 1433 1434 1436 1437 1439 1441 1443 1445 1446 1448 1449 1450 1451 1452 1453
1405 1411 1411 1402 1391 1387 1388 1386 1383 1382 1382 1383 1389 1391 1385 1379 1381 1381 1379 1379 1380 1380 1381 1383 1386 1390 1392 1393 1395 1396 1394 1394 1394 1393 1393 1395 1397 1400 1404 1407 1409 1412 1415 1418 1421 1424 1427 1429 1431 1433 1435 1436 1439 1441 1442 1444 1445 1447 1449 1449 1450 1451 1451
1405 1409 1410 1403 1393 1388 1388 1387 1383 1382 1384 1385 1384 1382 1381 1381 1381 1380 1380 1380 1380 1381 1383 1384 1387 1391 1393 1394 1395 1396 1395 1395 1396 1396 1396 1397 1400 1404 1407 1410 1412 1413 1415 1418 1421 1424 1426 1428 1430 1432 1434 1436 1438 1440 1441 1443 1445 1447 1448 1449 1449 1449 1450
1408 1411 1410 1407 1401 1392 1389 1389 1385 1381 1383 1384 1381 1381 1383 1383 1381 1381 1383 1384 1384 1384 1385 1386 1389 1391 1394 1396 1396 1397 1397 1397 1397 1399 1399 1399 1402 1404 1407 1409 1412 1414 1416 1419 1422 1424 1426 1428 1430 1432 1434 1436 1437 1439 1440 1441 1443 1445 1447 1448 1448 1448 1448
1411 1414 1413 1409 1404 1397 1393 1392 1388 1383 1382 1383 1382 1383 1384 1384 1384 1385 1386 1387 1389 1388 1387 1389 1391 1392 1393 1395 1396 1397 1399 1399 1399 1401 1402 1403 1404 1405 1406 1409 1411 1414 1417 1420 1423 1425 1427 1428 1430 1432 1434 1436 1437 1438 1439 1441 1442 1444 1445 1446 1447 1447 1447
1409 1408 1407 1404 1402 1399 1396 1393 1390 1387 1385 1385 1385 1385 1385 1385 1386 1386 1387 1390 1392 1392 1392 1392 1392 1392 1394 1396 1397 1399 1400 1401 1402 1403 1405 1406 1407 1408 1409 1411 1412 1414 1416 1419 1423 1426 1428 1429 1430 1432 1435 1436 1438 1439 1440 1441 1442 1443 1444 1445 1445 1445 1446
1406 1404 1405 1404 1402 1400 1398 1395 1394 1392 1389 1388 1388 1388 1387 1387 1388 1388 1389 1391 1393 1395 1396 1394 1394 1395 1397 1397 1399 1401 1402 1404 1405 1405 1407 1409 1410 1411 1413 1414 1415 1416 1417 1419 1422 1425 1427 1429 1430 1432 1435 1437 1438 1439 1440 1441 1442 1442 1443 1443 1443 1444 1444
1404 1406 1406 1404 1403 1402 1401 1399 1398 1395 1393 1392 1392 1391 1391 1391 1391 1392 1392 1394 1396 1397 1398 1397 1397 1398 1399 1399 1401 1403 1404 1406 1407 1407 1409 1410 1412 1413 1414 1415 1417 1418 1419 1421 1423 1424 1426 1428 1429 1431 1434 1436 1437 1438 1439 1440 1441 1441 1441 1441 1441 1442 1442
1398 1400 1401 1402 1404 1404 1403 1402 1401 1398 1396 1395 1395 1395 1395 1395 1394 1395 1395 1396 1398 1399 1400 1401 1401 1401 1401 1402 1402 1404 1405 1407 1408 1409 1410 1411 1412 1414 1415 1416 1417 1418 1420 1422 1423 1424 1424 1426 1428 1430 1432 1433 1434 1435 1436 1438 1439 1439 1439 1439 1439 1440 1440
1397 1398 1400 1404 1405 1405 1405 1404 1403 1401 1398 1397 1399 1400 1400 1398 1397 1397 1397 1398 1400 1403 1405 1405 1404 1403 1403 1404 1404 1405 1407 1408 1409 1410 1411 1412 1413 1414 1416 1417 1418 1419 1420 1421 1422 1422 1423 1425 1427 1428 1429 1430 1430 1432 1434 1436 1438 1438 1437 1437 1438 1439 1439
1395 1393 1396 1398 1398 1402 1406 1405 1404 1403 1400 1399 1401 1402 1402 1402 1401 1401 1400 1401 1404 1406 1408 1409 1407 1406 1405 1406 1406 1406 1407 1408 1410 1412 1413 1414 1415 1416 1417 1418 1418 1419 1419 1419 1420 1421 1423 1425 1427 1428 1428 1429 1430 1431 1433 1435 1436 1436 1435 1436 1437 1439 1439
1389 1385 1389 1391 1393 1398 1404 1405 1406 1406 1403 1402 1403 1404 1404 1404 1404 1403 1403 1403 1405 1408 1411 1412 1411 1408 1408 1408 1408 1407 1408 1410 1411 1413 1415 1416 1417 1417 1418 1418 1418 1418 1418 1418 1420 1422 1423 1425 1426 1427 1427 1428 1429 1431 1432 1433 1434 1434 1434 1435 1437 1438 1439
1389 1388 1391 1392 1393 1397 1403 1407 1408 1407 1405 1405 1406 1404 1403 1404 1404 1404 1404 1404 1406 1410 1414 1416 1415 1412 1410 1409 1409 1409 1410 1410 1412 1414 1416 1417 1417 1418 1417 1417 1417 1417 1418 1419 1421 1422 1423 1424 1425 1426 1426 1427 1428 1430 1431 1432 1432 1433 1434 1435 1437 1438 1439
1391 1392 1394 1395 1396 1399 1404 1408 1408 1407 1406 1407 1406 1405 1404 1404 1405 1407 1408 1409 1412 1415 1417 1417 1417 1414 1410 1409 1410 1411 1411 1412 1413 1415 1417 1418 1418 1419 1418 1418 1418 1417 1418 1419 1420 1421 1422 1422 1423 1424 1425 1426 1428 1429 1430 1431 1431 1433 1434 1435 1437 1438 1440